Regional Weather Roundup
Issued by NWS

Home | Current Version | Previous Version | Text Only | Print | Product List | Glossary On
Versions: 1 2 3 4 5 6 7 8 9 10 11 12 13 14 15 16 17 18 19 20 21 22 23 24 25 26 27 28 29 30 31 32 33 34 35 36 37 38 39 40 41 42 43 44 45 46 47 48 49 50
000
ASUS46 KPQR 172210
RWROR

OREGON REGIONAL WEATHER ROUNDUP
NATIONAL WEATHER SERVICE PORTLAND OR
200 PM PST WED DEC 17 2014

NOTE: "FAIR" INDICATES FEW OR NO CLOUDS BELOW 12,000 FEET WITH
NO SIGNIFICANT WEATHER AND/OR OBSTRUCTIONS TO VISIBILITY.

ORZ001>013-172300-
NORTHWEST OREGON


CITY           SKY/WX    TMP DP  RH WIND       PRES   REMARKS
ASTORIA        CLOUDY    48  42  80 E8        29.81S
NEWPORT        CLOUDY    50  50 100 SW16      29.82R
PORTLAND       CLOUDY    46  39  76 E14       29.85S
VANCOUVER WA   LGT RAIN  46  39  76 SE7       29.85S
SCAPPOOSE      CLOUDY    47  39  74 S3        29.85R
HILLSBORO      CLOUDY    46  39  76 CALM      29.85R
AURORA         CLOUDY    44  41  89 S3        29.86R
MCMINNVILLE    CLOUDY    46  39  76 E5        29.86S
SALEM          LGT RAIN  45  42  89 SE8       29.84S
CORVALLIS      CLOUDY    46  45  93 S9        29.86S
EUGENE         CLOUDY    50  46  86 S13       29.86S
$$

ORZ021-028-172300-
SOUTHWEST OREGON


CITY           SKY/WX    TMP DP  RH WIND       PRES   REMARKS
NORTH BEND     CLOUDY    54  48  82 SW12G18   29.90R
BROOKINGS      LGT RAIN  50  48  92 VRB5      29.92S FOG
ROSEBURG       CLOUDY    52  44  74 S5        29.90R
SEXTON SUMMIT  LGT RAIN  37  37 100 S9        29.86R VSB<1/4 WCI  30
MEDFORD        CLOUDY    49  43  80 NE8       29.89S
$$

ORZ014>016-041-172300-
COLUMBIA GORGE


CITY           SKY/WX    TMP DP  RH WIND       PRES   REMARKS
TROUTDALE      CLOUDY    45  37  73 E16       29.85R
THE DALLES     CLOUDY    42  38  85 W3        29.94S
$$

ORZ029>031-041-044-049-050-061>064-502-503-505>511-172300-
EASTERN OREGON


CITY           SKY/WX    TMP DP  RH WIND       PRES   REMARKS
REDMOND        CLOUDY    35  33  92 NW7       29.83R WCI  29
BEND           PTSUNNY   39  36  87 N3        29.83R
PRINEVILLE     CLOUDY    41  39  93 W7        29.82S
KLAMATH FALLS  LGT RAIN  41  35  79 S6        29.87S
LAKEVIEW       CLOUDY    39  30  70 S13       29.90R WCI  32
HERMISTON      CLOUDY    40  36  86 S6        29.93S FOG
PENDLETON      CLOUDY    37  35  92 NW8       29.89S FOG     WCI  31
JOHN DAY       CLOUDY    44  33  64 S17G26    29.87R
MEACHAM        CLOUDY    39  32  76 CALM      29.86R
LA GRANDE      CLOUDY    45  28  53 S22       29.89S
BAKER CITY     CLOUDY    38  31  76 E17       29.92R WCI  28
BURNS          CLOUDY    38  30  73 NE6       29.90R WCI  33
ROME             N/A     36  32  85 NE6       29.91R WCI  31
ONTARIO        CLOUDY    41  34  76 W3        29.99S
$$


USA.gov is the U.S. government's official web portal to all federal, state and local government web resources and services.